Location: Cantaing
(50.1487°N, 3.1675°E)
Time: 22:52:39
(UTC+00:00)

Cosmos 2082 Rocket - Pass Details

Date: 12 April 2026
Orbit: 831 x 853 km, 71.0° (Epoch: 19 May)

Event Time Altitude Azimuth Distance (km) Brightness Sun altitude
Exits shadow 03:25:36 20° 220° (SW) 1,847 3.4 -14.7°
Maximum altitude 03:29:34 72° 301° (WNW) 899 2.2 -14.2°
Drops below altitude 10° 03:35:18 10° 26° (NNE) 2,494 5.6 -13.4°
Sets 03:37:47 0° 29° (NNE) 3,434 6.5 -13.0°
